{"data":{"norad_id":64690,"intl_designator":"2025-139AC","name":"STARLINK-34250","alt_names":[],"object_type":"PAYLOAD","status":"ACTIVE","operator":null,"country":"US","launch_date":"2025-06-28","launch_site_code":"AFETR","launch_vehicle":null,"mission":null,"orbit_class":"UNKNOWN","rcs_meters":null,"size_class":null,"mass_kg":null,"dimensions":null,"purposes":["comms"],"wikipedia_slug":null,"has_3d_model":false,"image_url":null,"decayed_at":null,"tle_current":{"epoch":"2026-05-25T02:34:33.066624Z","epoch_age_seconds":62832,"freshness":"FRESH","line1":"1 64690U 25139AC  26145.10732716  .00024418  00000+0  73133-3 0  9998","line2":"2 64690  53.1577 131.3935 0001137  93.7672 266.3461 15.34406245 51992","mean_motion":15.34406245,"eccentricity":0.0001137,"inclination_deg":53.1577,"raan_deg":131.3935,"arg_perigee_deg":93.7672,"mean_anomaly_deg":266.3461,"bstar":0.00073133,"rev_number":5199,"period_min":93.847376123003,"perigee_km":461.9068773891,"apogee_km":463.46248023887,"semimajor_km":6840.821678814,"source":"CELESTRAK","updated_at":"2026-05-25T13:38:20.509450Z"}}}